When you browse on this site, cookies collect data to enhance your experience and personalize the content and advertising you see.
Visit our Privacy Policy to learn more. By continuing to use the site, you agree to this use of cookies and data.
  • Em Portugal
  • Lista de países
  • Para 7 dias
  • Temperatura da água
  • Mapas de satélite
  • Mapa do tempo
  • Widgets de tempo
  • user-avatar
    Iniciar Sessão

    Previsão horária em Warszyn

    Hoje, 10 Dezembro, Segunda-feira

    Tempo Temperatura Precipitação Vento Pressão Humidade
    00:00 +4°C° 0.2 mm 4 m/s 731 mmHg 91%
    01:00 +4°C° 0.2 mm 4 m/s 732 mmHg 91%
    02:00 +3°C° 0.3 mm 5 m/s 732 mmHg 86%
    03:00 +2°C° 0.3 mm 5 m/s 733 mmHg 80%
    04:00 +2°C° 0.3 mm 6 m/s 733 mmHg 74%
    05:00 +2°C° 0 mm 6 m/s 734 mmHg 76%
    06:00 +1°C° 0 mm 5 m/s 734 mmHg 77%
    07:00 +1°C° 0 mm 5 m/s 734 mmHg 78%
    08:00 +1°C° 0 mm 5 m/s 735 mmHg 77%
    09:00 +2°C° 0 mm 5 m/s 736 mmHg 76%
    10:00 +2°C° 0 mm 5 m/s 736 mmHg 74%
    11:00 +2°C° 0 mm 6 m/s 736 mmHg 71%
    12:00 +2°C° 0 mm 6 m/s 737 mmHg 68%
    13:00 +3°C° 0 mm 6 m/s 737 mmHg 65%
    14:00 +2°C° 0 mm 6 m/s 737 mmHg 67%
    15:00 +2°C° 0 mm 5 m/s 737 mmHg 69%
    16:00 +1°C° 0 mm 4 m/s 738 mmHg 71%
    17:00 +1°C° 0 mm 4 m/s 738 mmHg 74%
    18:00 0°C° 0 mm 4 m/s 738 mmHg 76%
    19:00 0°C° 0 mm 4 m/s 738 mmHg 78%
    20:00 0°C° 0.1 mm 4 m/s 738 mmHg 80%
    21:00 0°C° 0.1 mm 4 m/s 738 mmHg 81%
    22:00 0°C° 0.1 mm 4 m/s 738 mmHg 82%
    23:00 0°C° 0.3 mm 4 m/s 738 mmHg 83%

    Amanhã, 11 Dezembro, Terça-feira

    Tempo Temperatura Precipitação Vento Pressão Humidade
    00:00 +1°C° 0.3 mm 3 m/s 738 mmHg 83%
    01:00 +1°C° 0.3 mm 3 m/s 738 mmHg 84%
    02:00 +1°C° 0.2 mm 3 m/s 738 mmHg 86%
    03:00 +2°C° 0.2 mm 2 m/s 739 mmHg 88%
    04:00 +2°C° 0.2 mm 2 m/s 739 mmHg 90%
    05:00 +2°C° 0.1 mm 2 m/s 739 mmHg 91%
    06:00 +1°C° 0.1 mm 2 m/s 739 mmHg 92%
    07:00 +1°C° 0.1 mm 2 m/s 740 mmHg 93%
    08:00 +1°C° 0 mm 2 m/s 740 mmHg 93%
    09:00 +1°C° 0 mm 2 m/s 741 mmHg 92%
    10:00 +2°C° 0 mm 2 m/s 742 mmHg 91%
    11:00 +1°C° 0 mm 3 m/s 742 mmHg 89%
    12:00 +1°C° 0 mm 3 m/s 742 mmHg 87%
    13:00 +1°C° 0 mm 3 m/s 743 mmHg 85%
    14:00 +1°C° 0 mm 3 m/s 743 mmHg 86%
    15:00 +1°C° 0 mm 3 m/s 744 mmHg 87%
    16:00 +1°C° 0 mm 2 m/s 745 mmHg 88%
    17:00 +1°C° 0 mm 2 m/s 745 mmHg 89%
    18:00 +1°C° 0 mm 2 m/s 745 mmHg 91%
    19:00 -1°C° 0 mm 2 m/s 746 mmHg 92%
    20:00 +1°C° 0 mm 1 m/s 746 mmHg 92%
    21:00 +1°C° 0 mm 1 m/s 747 mmHg 92%
    22:00 +1°C° 0 mm 1 m/s 747 mmHg 93%
    23:00 +1°C° 0 mm 1 m/s 747 mmHg 93%

    Depois de amanhã, 12 Dezembro, Quarta-feira

    Tempo Temperatura Precipitação Vento Pressão Humidade
    00:00 +1°C° 0 mm 1 m/s 748 mmHg 92%
    01:00 +1°C° 0 mm 1 m/s 748 mmHg 92%
    02:00 +1°C° 0 mm 1 m/s 749 mmHg 92%
    03:00 +1°C° 0 mm 1 m/s 749 mmHg 92%
    04:00 0°C° 0 mm 0 m/s 749 mmHg 92%
    05:00 0°C° 0 mm 0 m/s 749 mmHg 91%
    06:00 0°C° 0 mm 0 m/s 750 mmHg 91%
    07:00 0°C° 0 mm 0 m/s 750 mmHg 91%
    08:00 +1°C° 0 mm 1 m/s 750 mmHg 88%
    09:00 +1°C° 0 mm 1 m/s 751 mmHg 86%
    10:00 +2°C° 0 mm 1 m/s 751 mmHg 84%
    11:00 +2°C° 0.1 mm 1 m/s 751 mmHg 83%
    12:00 +3°C° 0.1 mm 1 m/s 752 mmHg 81%
    13:00 +3°C° 0.1 mm 1 m/s 752 mmHg 80%
    14:00 +2°C° 0 mm 1 m/s 752 mmHg 83%
    15:00 +2°C° 0 mm 1 m/s 752 mmHg 86%
    16:00 +2°C° 0 mm 1 m/s 752 mmHg 88%
    17:00 +1°C° 0 mm 1 m/s 752 mmHg 90%
    18:00 +1°C° 0 mm 1 m/s 752 mmHg 91%
    19:00 +1°C° 0 mm 1 m/s 753 mmHg 93%
    20:00 +1°C° 0 mm 1 m/s 753 mmHg 93%
    21:00 +1°C° 0 mm 1 m/s 753 mmHg 94%
    22:00 0°C° 0 mm 1 m/s 753 mmHg 94%
    23:00 +1°C° 0 mm 1 m/s 753 mmHg 94%

    13 Dezembro, Quinta-feira

    Tempo Temperatura Precipitação Vento Pressão Humidade
    00:00 -1°C° 0 mm 2 m/s 754 mmHg 93%
    01:00 -1°C° 0 mm 2 m/s 754 mmHg 92%
    02:00 -1°C° 0 mm 2 m/s 754 mmHg 93%
    03:00 -1°C° 0 mm 2 m/s 753 mmHg 93%
    04:00 0°C° 0 mm 1 m/s 753 mmHg 93%
    05:00 0°C° 0 mm 1 m/s 753 mmHg 94%
    06:00 0°C° 0 mm 1 m/s 753 mmHg 94%
    07:00 0°C° 0 mm 1 m/s 753 mmHg 94%
    08:00 0°C° 0 mm 1 m/s 753 mmHg 92%
    09:00 -1°C° 0 mm 2 m/s 753 mmHg 90%
    10:00 -1°C° 0 mm 2 m/s 753 mmHg 87%
    11:00 -1°C° 0 mm 2 m/s 753 mmHg 85%
    12:00 -1°C° 0 mm 2 m/s 753 mmHg 83%
    13:00 +1°C° 0 mm 2 m/s 752 mmHg 81%
    14:00 -1°C° 0 mm 2 m/s 752 mmHg 83%
    15:00 +1°C° 0 mm 1 m/s 752 mmHg 85%
    16:00 +1°C° 0 mm 1 m/s 752 mmHg 87%
    17:00 0°C° 0 mm 1 m/s 752 mmHg 87%
    18:00 -2°C° 0 mm 2 m/s 752 mmHg 87%
    19:00 -2°C° 0 mm 2 m/s 751 mmHg 86%
    20:00 -2°C° 0 mm 2 m/s 751 mmHg 87%
    21:00 -2°C° 0 mm 2 m/s 751 mmHg 87%
    22:00 0°C° 0 mm 1 m/s 751 mmHg 88%
    23:00 0°C° 0 mm 1 m/s 751 mmHg 88%

    14 Dezembro, Sexta-feira

    Tempo Temperatura Precipitação Vento Pressão Humidade
    00:00 0°C° 0 mm 1 m/s 751 mmHg 88%
    01:00 -1°C° 0 mm 1 m/s 751 mmHg 88%
    02:00 -1°C° 0 mm 1 m/s 751 mmHg 89%
    03:00 -1°C° 0 mm 1 m/s 751 mmHg 89%
    04:00 -1°C° 0 mm 1 m/s 751 mmHg 90%
    05:00 -1°C° 0 mm 1 m/s 751 mmHg 90%
    06:00 -1°C° 0 mm 1 m/s 751 mmHg 90%
    07:00 -1°C° 0 mm 1 m/s 751 mmHg 90%
    08:00 -2°C° 0 mm 2 m/s 751 mmHg 89%
    09:00 -2°C° 0 mm 2 m/s 752 mmHg 88%
    10:00 -2°C° 0 mm 2 m/s 752 mmHg 87%
    11:00 -2°C° 0 mm 2 m/s 752 mmHg 86%
    12:00 -1°C° 0 mm 2 m/s 752 mmHg 85%
    13:00 -1°C° 0 mm 2 m/s 752 mmHg 83%
    14:00 -1°C° 0 mm 2 m/s 752 mmHg 85%
    15:00 -1°C° 0 mm 2 m/s 752 mmHg 87%
    16:00 -2°C° 0 mm 2 m/s 752 mmHg 89%
    17:00 -2°C° 0 mm 2 m/s 751 mmHg 89%
    18:00 -2°C° 0 mm 2 m/s 751 mmHg 90%
    19:00 -2°C° 0 mm 3 m/s 751 mmHg 90%
    20:00 -3°C° 0 mm 2 m/s 751 mmHg 89%
    21:00 -3°C° 0 mm 2 m/s 752 mmHg 87%
    22:00 -3°C° 0 mm 2 m/s 752 mmHg 86%
    23:00 -3°C° 0 mm 2 m/s 752 mmHg 87%

    15 Dezembro, Sábado

    Tempo Temperatura Precipitação Vento Pressão Humidade
    00:00 -3°C° 0 mm 2 m/s 752 mmHg 87%
    01:00 -3°C° 0 mm 2 m/s 752 mmHg 88%
    02:00 -3°C° 0 mm 2 m/s 752 mmHg 89%
    03:00 -3°C° 0 mm 2 m/s 752 mmHg 90%
    04:00 -3°C° 0 mm 2 m/s 753 mmHg 91%
    05:00 -3°C° 0 mm 2 m/s 753 mmHg 91%
    06:00 -3°C° 0 mm 2 m/s 753 mmHg 91%
    07:00 -3°C° 0 mm 2 m/s 754 mmHg 91%
    08:00 -3°C° 0 mm 2 m/s 754 mmHg 89%
    09:00 -3°C° 0 mm 2 m/s 755 mmHg 86%
    10:00 -2°C° 0 mm 2 m/s 755 mmHg 84%
    11:00 -2°C° 0 mm 2 m/s 756 mmHg 81%
    12:00 -2°C° 0 mm 2 m/s 756 mmHg 78%
    13:00 -1°C° 0 mm 2 m/s 756 mmHg 76%
    14:00 -2°C° 0 mm 2 m/s 756 mmHg 79%
    15:00 -2°C° 0 mm 2 m/s 757 mmHg 82%
    16:00 -1°C° 0 mm 1 m/s 757 mmHg 85%
    17:00 -1°C° 0 mm 1 m/s 757 mmHg 86%
    18:00 -1°C° 0 mm 1 m/s 757 mmHg 87%
    19:00 -3°C° 0 mm 2 m/s 757 mmHg 88%
    20:00 -2°C° 0 mm 1 m/s 758 mmHg 88%
    21:00 -2°C° 0 mm 1 m/s 758 mmHg 89%
    22:00 -2°C° 0 mm 1 m/s 758 mmHg 90%
    23:00 -2°C° 0 mm 1 m/s 758 mmHg 90%
    Mostrar mais